Lane Cove West Real Estate, NSW, 2066 Lane Cove

Thinking about buying in Lane Cove West? Now could not be a better time, with a whopping 2730 properties either residential or commercial there's certainly plenty to choose from.

Distance to the coast is 5 Km.

Lane Cove West Real Estate Market Outlook

Consistent high demand relative to supply is a key feature in Lane Cove West driving regular price increases. Recent rapid price increases however may constrain future growth by limiting demand. High average incomes in Lane Cove West ensure a focus on quality with a commensurate high entry price under constant demand. Competition for available quality housing is intense with multiple offers likely to be made in excess of asking prices. The high percentage of professional people in Lane Cove West classifies the area as "gentrified". This implies high demand for quality housing, generally of larger than average size. Price growth is ensured even where the state affordability index is negatively impacting other areas. High density population in Lane Cove West requires consistent turnover in housing ensuring constant demand. Housing styles may be a mix of low, medium, and high density, providing choice for well-financed buyers and value growth over time. High industry presence in the wider area is a double-edged sword. While local employment options are high, the presence of industrial buildings may negatively impact lifestyle perception. Demand from first home buyers and investors however ensures good price growth.

About

Properties For Sale

LJ Hooker 8 MOORE ST, LANE COVE WEST, NSW, 2066 3 2 2 Sold
theagency 34 WOOD ST, LANE COVE WEST, NSW, 2066 3 1 2 13th August at 11:00am

Local Schools


None within suburb boundary

(While the above schools are located with the suburb of Lane Cove West there may also be nearby schools whose catchments cover this suburb)

Local Crime Rates


Average Local Climate by month


(mm)
RAIN
Min (°C)
TEMP
Max (°C)
TEMP
Min (%)
HUMIDITY
Max (%)
HUMIDITY
(m/sec)
WIND
(MJ/sq m)
SOLAR
Jan2.520.327.652.485.5023.2
Feb4.320.127.054.286.5019.6
Mar6.518.925.954.587.3015.9
Apr5.915.323.551.489.0013.9
May2.612.321.247.584.4011.4
Jun4.610.318.550.385.409.1
Jul2.69.018.243.782.1010.4
Aug2.69.719.739.480.2013.1
Sept1.412.522.437.080.2017.8
Oct2.215.023.742.782.8021.1
Nov3.417.125.349.285.2023.4
Dec2.118.726.449.284.8024.4

source: Australian Government Bureau of Meteorology

Recently Sold Properties / House Prices

28-07-2022 $3,720,000 43 GARLING ST LANE COVE WEST 2066
28-07-2022 $2,720,000 54 MOORE ST LANE COVE WEST 2066
06-07-2022 $3,125,000 3 AVALON AVE LANE COVE WEST 2066
05-07-2022 $3,800,000 4 GARDENIA AVE LANE COVE WEST 2066
04-07-2022 $3,500,000 24 HALLAM AVE LANE COVE WEST 2066
30-06-2022 $900,000 121 CENTENNIAL AVE LANE COVE WEST 2066
30-06-2022 $31,500,000 15 ORION RD LANE COVE WEST 2066
30-06-2022 $31,500,000 15 ORION RD LANE COVE WEST 2066
30-06-2022 $31,500,000 15 ORION RD LANE COVE WEST 2066
30-06-2022 $31,500,000 15 ORION RD LANE COVE WEST 2066
30-06-2022 $31,500,000 15 ORION RD LANE COVE WEST 2066
30-06-2022 $31,500,000 15 ORION RD LANE COVE WEST 2066
30-06-2022 $31,500,000 15 ORION RD LANE COVE WEST 2066
30-06-2022 $31,500,000 15 ORION RD LANE COVE WEST 2066
30-06-2022 $31,500,000 15 ORION RD LANE COVE WEST 2066
30-06-2022 $31,500,000 15 ORION RD LANE COVE WEST 2066
30-06-2022 $31,500,000 15 ORION RD LANE COVE WEST 2066
30-06-2022 $31,500,000 15 ORION RD LANE COVE WEST 2066
30-06-2022 $31,500,000 15 ORION RD LANE COVE WEST 2066
30-06-2022 $31,500,000 15 ORION RD LANE COVE WEST 2066
30-06-2022 $31,500,000 15 ORION RD LANE COVE WEST 2066
30-06-2022 $31,500,000 15 ORION RD LANE COVE WEST 2066
30-06-2022 $31,500,000 15 ORION RD LANE COVE WEST 2066
09-06-2022 $3,100,000 9 AVALON AVE LANE COVE WEST 2066
17-05-2022 $38,000 303 / 23 MARS RD LANE COVE WEST 2066
16-05-2022 $1,265,000 4 / 57 GARLING ST LANE COVE WEST 2066
04-05-2022 $30,250,000 23 CHAPLIN DR LANE COVE WEST 2066
29-04-2022 $650,000 402 / 27 MARS RD LANE COVE WEST 2066
29-04-2022 $600,000 401 / 27 MARS RD LANE COVE WEST 2066
22-04-2022 $4,250,000 12 GARLING ST LANE COVE WEST 2066
25-03-2022 $3,750,000 70 PENROSE ST LANE COVE WEST 2066
24-03-2022 $3,650,000 60 COPE ST LANE COVE WEST 2066
18-03-2022 $850,000 17 / 315 BURNS BAY RD LANE COVE WEST 2066
02-03-2022 $385,000 340 / 23 MARS RD LANE COVE WEST 2066
17-02-2022 $20,560,000 4 SIRIUS RD LANE COVE WEST 2066
17-02-2022 $20,560,000 4 SIRIUS RD LANE COVE WEST 2066
17-02-2022 $20,560,000 4 SIRIUS RD LANE COVE WEST 2066
16-02-2022 $3,080,000 68 CULLEN ST LANE COVE WEST 2066
04-02-2022 $4,250,000 88 PENROSE ST LANE COVE WEST 2066
03-02-2022 $2,700,000 71 WOOD ST LANE COVE WEST 2066
21-01-2022 $83,600 323 / 23 MARS RD LANE COVE WEST 2066
21-01-2022 $900,000 13 / 299 BURNS BAY RD LANE COVE WEST 2066
12-01-2022 $3,525,000 39 CULLEN ST LANE COVE WEST 2066
20-12-2021 $6,500,000 77 MARS RD LANE COVE WEST 2066
17-12-2021 $880,000 33 / 299 BURNS BAY RD LANE COVE WEST 2066
15-12-2021 $2,675,000 69 CENTENNIAL AVE LANE COVE WEST 2066
10-12-2021 $2,890,000 25 HALLAM AVE LANE COVE WEST 2066
10-12-2021 $13,000,000 14 ORION RD LANE COVE WEST 2066
10-12-2021 $3,300,000 44 WOOD ST LANE COVE WEST 2066
08-12-2021 $2,500,000 58 MOORE ST LANE COVE WEST 2066

Internet Speed

  • Fibre to the Basement (vectored or non-vectored)
  • Fibre to the Curb
  • Fibre to the Node
  • Fibre to the Premises
  • Hybrid Fibre Coaxial (HFC)
  • Satellite

Residz covers 12m+ Australian properties and brings together a wealth of data to give you a better understanding of an area. From crime and schools to bush fire, flood risk and more. Begin your search for properties for sale or learn more about where you currently reside. Residz is an exciting next-generation Real Estate platform getting better by the day!